Flag for U.S.A. Weather past 2 weeks in Chesapeake, Virginia, U.S.A.

Now
82 °F

Warm.


Feels Like: 85 °F
Forecast: 71 / 84 °F
Wind: 5 mph from Northeast

Location: Chesapeake Municipal Airport

Current Time: Jul 3, 2015 at 12:30:23 PM

Latest Report: Jul 3, 2015 at 11:55 AM


Visibility: 10 mi

Pressure: 29.99 "Hg

Humidity: 62%

Dew point: 68 °F

Location of ChesapeakeLocation

Historic Weather in Chesapeake — Graph

°F

Chesapeake temperature yesterday

Maximum temperature yesterday: 90 °F (at 2:55 PM)
Minimum temperature yesterday: 73 °F (at 10:15 PM)
Average temperature yesterday: 81 °F

Past Weeks' High & Low Weather Summary

 TemperatureHumidityPressure
High99 °F (Jun 23, 2:55 PM)100% (Jun 21, 1:15 AM)30.11 "Hg (Jun 21, 1:15 AM)
Low63 °F (Jun 29, 5:55 AM)42% (Jun 19, 2:35 PM)29.70 "Hg (Jun 28, 2:35 AM)
Average82 °F75%29.95 "Hg
* Reported Jun 18 11:15 AM — Jul 3 11:15 AM, Chesapeake, Weather by CustomWeather, © 2015

Note: Actual official high and low records may vary slightly from our data, if they occured in-between our weather recording intervals... More about our weather records

Advertising

Chesapeake weather history for previous 24 hours

 ConditionsComfort  
Time TempWeatherWind HumidityBarometerVisibility
11:15 AM
Fri, Jul 3
81 °FWarm.No wind62%29.99 "Hg10 mi
10:55 AM81 °FWarm.5 mph62%29.99 "Hg10 mi
10:15 AM79 °FWarm.No wind70%29.98 "Hg10 mi
9:55 AM79 °FWarm.3 mph70%29.99 "Hg10 mi
9:35 AM79 °FWarm.3 mph70%29.99 "Hg10 mi
9:15 AM75 °FMild.3 mph83%29.99 "Hg10 mi
8:55 AM77 °FWarm.No wind79%30.00 "Hg10 mi
8:35 AM75 °FMild.3 mph83%29.99 "Hg10 mi
8:15 AM75 °FMild.7 mph83%29.98 "Hg10 mi
7:55 AM75 °FFog.No wind89%29.97 "Hg5 mi
7:35 AM73 °FFog.No wind94%29.97 "Hg4 mi
7:15 AM73 °FFog.No wind94%29.96 "Hg4 mi
6:55 AM73 °FFog.No wind94%29.96 "Hg4 mi
6:35 AM73 °FFog.No wind94%29.96 "Hg2 mi
6:15 AM73 °FFog.No wind94%29.95 "Hg4 mi
5:55 AM73 °FFog.No wind94%29.94 "Hg4 mi
5:15 AM73 °FFog.No wind94%29.90 "Hg5 mi
4:55 AM73 °FFog.No wind94%29.89 "Hg5 mi
4:35 AM73 °FFog.3 mph94%29.89 "Hg5 mi
4:15 AM73 °FFog.No wind100%29.89 "Hg4 mi
3:55 AM73 °FFog.No wind100%29.89 "Hg4 mi
3:35 AM73 °FFog.5 mph100%29.89 "Hg4 mi
3:15 AM73 °FFog.No wind100%29.89 "Hg3 mi
2:55 AM73 °FFog.No wind100%29.89 "Hg4 mi
2:15 AM75 °FFog.No wind94%29.91 "Hg5 mi
1:55 AM73 °FFog.No wind100%29.92 "Hg5 mi
1:15 AM73 °FFog.No wind100%29.92 "Hg4 mi
12:55 AM73 °FLight rain. Overcast.No wind100%29.92 "Hg3 mi
12:15 AM73 °FFog.No wind100%29.92 "Hg4 mi
11:55 PM
Thu, Jul 2
73 °FFog.6 mph100%29.92 "Hg4 mi
11:15 PM73 °FFog.No wind100%29.90 "Hg3 mi
10:55 PM73 °FFog.No wind100%29.89 "Hg5 mi
10:35 PM73 °FFog.No wind94%29.89 "Hg2 mi
10:15 PM73 °FFog.No wind100%29.88 "Hg4 mi
9:55 PM75 °FFog.No wind94%29.87 "Hg4 mi
9:15 PM75 °FFog.No wind94%29.86 "Hg5 mi
8:55 PM75 °FFog.No wind94%29.88 "Hg5 mi
8:35 PM75 °FLight rain. Cloudy.No wind94%29.88 "Hg7 mi
8:15 PM75 °FHeavy rain. Cloudy.No wind94%29.89 "Hg4 mi
7:55 PM75 °FThundershowers. Cloudy.5 mph94%29.89 "Hg10 mi
7:35 PM75 °FHeavy rain. Cloudy.6 mph94%29.90 "Hg2 mi
7:15 PM82 °FLight rain. Cloudy.14 mph74%29.85 "Hg10 mi
6:55 PM86 °FWarm.7 mph66%29.85 "Hg10 mi
6:35 PM86 °FWarm.7 mph62%29.85 "Hg10 mi
6:15 PM86 °FWarm.8 mph62%29.84 "Hg10 mi
5:55 PM88 °FWarm.8 mph59%29.83 "Hg10 mi
5:15 PM88 °FWarm.9 mph59%29.84 "Hg10 mi
4:55 PM88 °FWarm.7 mph59%29.84 "Hg10 mi
4:35 PM84 °FWarm.8 mph74%29.84 "Hg10 mi
4:15 PM88 °FWarm.6 mph62%29.84 "Hg10 mi
3:55 PM86 °FThundershowers. Cloudy.3 mph66%29.85 "Hg10 mi
3:35 PM82 °FThundershowers. Cloudy.7 mph70%29.85 "Hg10 mi
3:15 PM86 °FThunderstorms. Cloudy.23 mph62%29.86 "Hg10 mi
2:55 PM90 °FThundershowers. Cloudy.5 mph55%29.85 "Hg10 mi
Weather by CustomWeather, © 2015

See weather overviewHow to use our weather pages